Terminal Aerodrome Forecast
Issued by NWS Pueblo, CO

Home | Current Version | Previous Version | Text Only | Print | Product List | Glossary On
Versions: 1 2 3 4 5 6 7 8 9 10 11 12 13 14 15 16 17 18 19 20 21 22 23 24 25 26 27 28 29 30 31 32 33 34 35 36 37 38 39 40 41 42 43 44 45 46 47 48 49 50
000
FTUS45 KPUB 201122
TAFCOS
TAF
KCOS 201122Z 2012/2112 33009KT P6SM SCT150
     FM201700 16012KT P6SM SCT090 SCT150
     FM202200 17015KT P6SM VCTS SCT090CB BKN150
     FM210200 36012KT P6SM SCT150
     FM210400 36008KT P6SM SCT150=

USA.gov is the U.S. government's official web portal to all federal, state and local government web resources and services.